<?xml version="1.0"?>
<gpx xmlns="http://www.topografix.com/GPX/1/1" xmlns:xsi="http://www.w3.org/2001/XMLSchema-instance" version="1.1" creator="GPX RubyGem 1.0.0 -- http://dougfales.github.io/gpx/" xsi:schemaLocation="http://www.topografix.com/GPX/1/1 http://www.topografix.com/GPX/1/1/gpx.xsd">
  <metadata>
    <name/>
    <time>2026-05-10T13:57:32+00:00</time>
    <bound minlat="90.0" minlon="180.0" maxlat="-90.0" maxlon="-180.0"/>
  </metadata>
  <trk>
    <name/>
    <trkseg>
      <trkpt lat="43.937851" lon="7.096512">
        <time>1970-01-01T00:00:00+00:00</time>
        <ele>426.0</ele>
      </trkpt>
      <trkpt lat="43.937836" lon="7.096634">
        <time>1970-01-01T00:00:00+00:00</time>
        <ele>427.0</ele>
      </trkpt>
      <trkpt lat="43.937826" lon="7.096744">
        <time>1970-01-01T00:00:00+00:00</time>
        <ele>428.0</ele>
      </trkpt>
      <trkpt lat="43.937862" lon="7.096828">
        <time>1970-01-01T00:00:00+00:00</time>
        <ele>430.0</ele>
      </trkpt>
      <trkpt lat="43.937844" lon="7.096918">
        <time>1970-01-01T00:00:00+00:00</time>
        <ele>431.0</ele>
      </trkpt>
      <trkpt lat="43.93799" lon="7.097091">
        <time>1970-01-01T00:00:00+00:00</time>
        <ele>438.0</ele>
      </trkpt>
      <trkpt lat="43.938013" lon="7.097118">
        <time>1970-01-01T00:00:00+00:00</time>
        <ele>439.0</ele>
      </trkpt>
      <trkpt lat="43.938177" lon="7.097117">
        <time>1970-01-01T00:00:00+00:00</time>
        <ele>443.0</ele>
      </trkpt>
      <trkpt lat="43.938331" lon="7.097212">
        <time>1970-01-01T00:00:00+00:00</time>
        <ele>447.0</ele>
      </trkpt>
      <trkpt lat="43.938341" lon="7.097289">
        <time>1970-01-01T00:00:00+00:00</time>
        <ele>445.0</ele>
      </trkpt>
      <trkpt lat="43.938375" lon="7.097329">
        <time>1970-01-01T00:00:00+00:00</time>
        <ele>444.0</ele>
      </trkpt>
      <trkpt lat="43.93843" lon="7.097287">
        <time>1970-01-01T00:00:00+00:00</time>
        <ele>445.0</ele>
      </trkpt>
      <trkpt lat="43.93858" lon="7.097253">
        <time>1970-01-01T00:00:00+00:00</time>
        <ele>447.0</ele>
      </trkpt>
      <trkpt lat="43.938627" lon="7.097242">
        <time>1970-01-01T00:00:00+00:00</time>
        <ele>448.0</ele>
      </trkpt>
      <trkpt lat="43.938768" lon="7.097091">
        <time>1970-01-01T00:00:00+00:00</time>
        <ele>451.0</ele>
      </trkpt>
      <trkpt lat="43.938824" lon="7.096974">
        <time>1970-01-01T00:00:00+00:00</time>
        <ele>454.0</ele>
      </trkpt>
      <trkpt lat="43.9389" lon="7.096752">
        <time>1970-01-01T00:00:00+00:00</time>
        <ele>457.0</ele>
      </trkpt>
      <trkpt lat="43.938874" lon="7.09642">
        <time>1970-01-01T00:00:00+00:00</time>
        <ele>462.0</ele>
      </trkpt>
      <trkpt lat="43.938886" lon="7.096009">
        <time>1970-01-01T00:00:00+00:00</time>
        <ele>468.0</ele>
      </trkpt>
      <trkpt lat="43.938988" lon="7.095432">
        <time>1970-01-01T00:00:00+00:00</time>
        <ele>480.0</ele>
      </trkpt>
      <trkpt lat="43.939075" lon="7.095248">
        <time>1970-01-01T00:00:00+00:00</time>
        <ele>486.0</ele>
      </trkpt>
      <trkpt lat="43.939194" lon="7.09479">
        <time>1970-01-01T00:00:00+00:00</time>
        <ele>491.0</ele>
      </trkpt>
      <trkpt lat="43.939256" lon="7.094615">
        <time>1970-01-01T00:00:00+00:00</time>
        <ele>493.0</ele>
      </trkpt>
      <trkpt lat="43.939294" lon="7.094583">
        <time>1970-01-01T00:00:00+00:00</time>
        <ele>495.0</ele>
      </trkpt>
      <trkpt lat="43.939738" lon="7.093776">
        <time>1970-01-01T00:00:00+00:00</time>
        <ele>508.0</ele>
      </trkpt>
      <trkpt lat="43.939893" lon="7.093557">
        <time>1970-01-01T00:00:00+00:00</time>
        <ele>515.0</ele>
      </trkpt>
      <trkpt lat="43.940161" lon="7.093236">
        <time>1970-01-01T00:00:00+00:00</time>
        <ele>522.0</ele>
      </trkpt>
      <trkpt lat="43.940211" lon="7.093151">
        <time>1970-01-01T00:00:00+00:00</time>
        <ele>521.0</ele>
      </trkpt>
      <trkpt lat="43.940464" lon="7.092927">
        <time>1970-01-01T00:00:00+00:00</time>
        <ele>531.0</ele>
      </trkpt>
      <trkpt lat="43.941266" lon="7.092338">
        <time>1970-01-01T00:00:00+00:00</time>
        <ele>551.0</ele>
      </trkpt>
      <trkpt lat="43.941485" lon="7.092101">
        <time>1970-01-01T00:00:00+00:00</time>
        <ele>557.0</ele>
      </trkpt>
      <trkpt lat="43.941974" lon="7.091872">
        <time>1970-01-01T00:00:00+00:00</time>
        <ele>572.0</ele>
      </trkpt>
      <trkpt lat="43.942035" lon="7.091801">
        <time>1970-01-01T00:00:00+00:00</time>
        <ele>571.0</ele>
      </trkpt>
      <trkpt lat="43.942066" lon="7.091745">
        <time>1970-01-01T00:00:00+00:00</time>
        <ele>571.0</ele>
      </trkpt>
      <trkpt lat="43.942098" lon="7.091199">
        <time>1970-01-01T00:00:00+00:00</time>
        <ele>569.0</ele>
      </trkpt>
      <trkpt lat="43.942118" lon="7.091111">
        <time>1970-01-01T00:00:00+00:00</time>
        <ele>571.0</ele>
      </trkpt>
      <trkpt lat="43.942418" lon="7.090428">
        <time>1970-01-01T00:00:00+00:00</time>
        <ele>586.0</ele>
      </trkpt>
      <trkpt lat="43.942469" lon="7.090272">
        <time>1970-01-01T00:00:00+00:00</time>
        <ele>588.0</ele>
      </trkpt>
      <trkpt lat="43.942468" lon="7.090193">
        <time>1970-01-01T00:00:00+00:00</time>
        <ele>586.0</ele>
      </trkpt>
      <trkpt lat="43.942623" lon="7.089861">
        <time>1970-01-01T00:00:00+00:00</time>
        <ele>597.0</ele>
      </trkpt>
      <trkpt lat="43.943225" lon="7.089363">
        <time>1970-01-01T00:00:00+00:00</time>
        <ele>617.0</ele>
      </trkpt>
      <trkpt lat="43.943561" lon="7.089001">
        <time>1970-01-01T00:00:00+00:00</time>
        <ele>625.0</ele>
      </trkpt>
      <trkpt lat="43.943805" lon="7.088634">
        <time>1970-01-01T00:00:00+00:00</time>
        <ele>632.0</ele>
      </trkpt>
      <trkpt lat="43.944267" lon="7.088152">
        <time>1970-01-01T00:00:00+00:00</time>
        <ele>645.0</ele>
      </trkpt>
      <trkpt lat="43.944381" lon="7.088089">
        <time>1970-01-01T00:00:00+00:00</time>
        <ele>649.0</ele>
      </trkpt>
      <trkpt lat="43.944616" lon="7.088006">
        <time>1970-01-01T00:00:00+00:00</time>
        <ele>655.0</ele>
      </trkpt>
      <trkpt lat="43.944746" lon="7.088027">
        <time>1970-01-01T00:00:00+00:00</time>
        <ele>652.0</ele>
      </trkpt>
      <trkpt lat="43.944842" lon="7.087993">
        <time>1970-01-01T00:00:00+00:00</time>
        <ele>650.0</ele>
      </trkpt>
      <trkpt lat="43.944965" lon="7.088051">
        <time>1970-01-01T00:00:00+00:00</time>
        <ele>646.0</ele>
      </trkpt>
      <trkpt lat="43.945162" lon="7.088031">
        <time>1970-01-01T00:00:00+00:00</time>
        <ele>648.0</ele>
      </trkpt>
      <trkpt lat="43.945299" lon="7.08807">
        <time>1970-01-01T00:00:00+00:00</time>
        <ele>650.0</ele>
      </trkpt>
      <trkpt lat="43.945444" lon="7.088161">
        <time>1970-01-01T00:00:00+00:00</time>
        <ele>651.0</ele>
      </trkpt>
      <trkpt lat="43.945484" lon="7.088166">
        <time>1970-01-01T00:00:00+00:00</time>
        <ele>650.0</ele>
      </trkpt>
      <trkpt lat="43.945514" lon="7.088092">
        <time>1970-01-01T00:00:00+00:00</time>
        <ele>653.0</ele>
      </trkpt>
      <trkpt lat="43.945569" lon="7.087668">
        <time>1970-01-01T00:00:00+00:00</time>
        <ele>673.0</ele>
      </trkpt>
      <trkpt lat="43.945647" lon="7.087488">
        <time>1970-01-01T00:00:00+00:00</time>
        <ele>679.0</ele>
      </trkpt>
      <trkpt lat="43.945973" lon="7.087347">
        <time>1970-01-01T00:00:00+00:00</time>
        <ele>666.0</ele>
      </trkpt>
      <trkpt lat="43.946193" lon="7.087384">
        <time>1970-01-01T00:00:00+00:00</time>
        <ele>657.0</ele>
      </trkpt>
      <trkpt lat="43.946325" lon="7.087256">
        <time>1970-01-01T00:00:00+00:00</time>
        <ele>673.0</ele>
      </trkpt>
      <trkpt lat="43.946403" lon="7.087116">
        <time>1970-01-01T00:00:00+00:00</time>
        <ele>684.0</ele>
      </trkpt>
      <trkpt lat="43.946488" lon="7.087042">
        <time>1970-01-01T00:00:00+00:00</time>
        <ele>681.0</ele>
      </trkpt>
      <trkpt lat="43.946505" lon="7.086904">
        <time>1970-01-01T00:00:00+00:00</time>
        <ele>687.0</ele>
      </trkpt>
      <trkpt lat="43.94671" lon="7.086799">
        <time>1970-01-01T00:00:00+00:00</time>
        <ele>674.0</ele>
      </trkpt>
      <trkpt lat="43.946852" lon="7.086909">
        <time>1970-01-01T00:00:00+00:00</time>
        <ele>667.0</ele>
      </trkpt>
      <trkpt lat="43.947033" lon="7.086923">
        <time>1970-01-01T00:00:00+00:00</time>
        <ele>672.0</ele>
      </trkpt>
      <trkpt lat="43.947352" lon="7.086211">
        <time>1970-01-01T00:00:00+00:00</time>
        <ele>690.0</ele>
      </trkpt>
      <trkpt lat="43.947774" lon="7.085409">
        <time>1970-01-01T00:00:00+00:00</time>
        <ele>691.0</ele>
      </trkpt>
      <trkpt lat="43.947958" lon="7.085232">
        <time>1970-01-01T00:00:00+00:00</time>
        <ele>691.0</ele>
      </trkpt>
      <trkpt lat="43.948071" lon="7.085162">
        <time>1970-01-01T00:00:00+00:00</time>
        <ele>690.0</ele>
      </trkpt>
      <trkpt lat="43.948295" lon="7.08505">
        <time>1970-01-01T00:00:00+00:00</time>
        <ele>690.0</ele>
      </trkpt>
      <trkpt lat="43.948446" lon="7.085004">
        <time>1970-01-01T00:00:00+00:00</time>
        <ele>690.0</ele>
      </trkpt>
      <trkpt lat="43.948369" lon="7.084874">
        <time>1970-01-01T00:00:00+00:00</time>
        <ele>699.0</ele>
      </trkpt>
      <trkpt lat="43.948492" lon="7.08479">
        <time>1970-01-01T00:00:00+00:00</time>
        <ele>702.0</ele>
      </trkpt>
      <trkpt lat="43.948419" lon="7.084758">
        <time>1970-01-01T00:00:00+00:00</time>
        <ele>705.0</ele>
      </trkpt>
      <trkpt lat="43.948442" lon="7.084702">
        <time>1970-01-01T00:00:00+00:00</time>
        <ele>708.0</ele>
      </trkpt>
      <trkpt lat="43.948391" lon="7.084624">
        <time>1970-01-01T00:00:00+00:00</time>
        <ele>713.0</ele>
      </trkpt>
      <trkpt lat="43.948468" lon="7.084486">
        <time>1970-01-01T00:00:00+00:00</time>
        <ele>720.0</ele>
      </trkpt>
      <trkpt lat="43.948374" lon="7.084484">
        <time>1970-01-01T00:00:00+00:00</time>
        <ele>721.0</ele>
      </trkpt>
      <trkpt lat="43.94841" lon="7.084398">
        <time>1970-01-01T00:00:00+00:00</time>
        <ele>725.0</ele>
      </trkpt>
      <trkpt lat="43.948298" lon="7.084385">
        <time>1970-01-01T00:00:00+00:00</time>
        <ele>727.0</ele>
      </trkpt>
      <trkpt lat="43.948321" lon="7.084336">
        <time>1970-01-01T00:00:00+00:00</time>
        <ele>730.0</ele>
      </trkpt>
      <trkpt lat="43.948262" lon="7.084317">
        <time>1970-01-01T00:00:00+00:00</time>
        <ele>732.0</ele>
      </trkpt>
      <trkpt lat="43.948293" lon="7.084262">
        <time>1970-01-01T00:00:00+00:00</time>
        <ele>734.0</ele>
      </trkpt>
      <trkpt lat="43.948252" lon="7.084253">
        <time>1970-01-01T00:00:00+00:00</time>
        <ele>735.0</ele>
      </trkpt>
      <trkpt lat="43.948281" lon="7.084219">
        <time>1970-01-01T00:00:00+00:00</time>
        <ele>736.0</ele>
      </trkpt>
      <trkpt lat="43.948246" lon="7.084205">
        <time>1970-01-01T00:00:00+00:00</time>
        <ele>738.0</ele>
      </trkpt>
      <trkpt lat="43.948347" lon="7.08411">
        <time>1970-01-01T00:00:00+00:00</time>
        <ele>741.0</ele>
      </trkpt>
      <trkpt lat="43.948137" lon="7.08419">
        <time>1970-01-01T00:00:00+00:00</time>
        <ele>740.0</ele>
      </trkpt>
      <trkpt lat="43.948044" lon="7.084182">
        <time>1970-01-01T00:00:00+00:00</time>
        <ele>742.0</ele>
      </trkpt>
      <trkpt lat="43.947867" lon="7.084271">
        <time>1970-01-01T00:00:00+00:00</time>
        <ele>741.0</ele>
      </trkpt>
      <trkpt lat="43.947475" lon="7.084347">
        <time>1970-01-01T00:00:00+00:00</time>
        <ele>748.0</ele>
      </trkpt>
      <trkpt lat="43.947328" lon="7.084431">
        <time>1970-01-01T00:00:00+00:00</time>
        <ele>750.0</ele>
      </trkpt>
      <trkpt lat="43.947129" lon="7.084509">
        <time>1970-01-01T00:00:00+00:00</time>
        <ele>755.0</ele>
      </trkpt>
      <trkpt lat="43.947221" lon="7.084395">
        <time>1970-01-01T00:00:00+00:00</time>
        <ele>752.0</ele>
      </trkpt>
      <trkpt lat="43.947311" lon="7.084226">
        <time>1970-01-01T00:00:00+00:00</time>
        <ele>753.0</ele>
      </trkpt>
      <trkpt lat="43.947331" lon="7.084147">
        <time>1970-01-01T00:00:00+00:00</time>
        <ele>753.0</ele>
      </trkpt>
      <trkpt lat="43.947388" lon="7.084068">
        <time>1970-01-01T00:00:00+00:00</time>
        <ele>754.0</ele>
      </trkpt>
      <trkpt lat="43.947459" lon="7.083841">
        <time>1970-01-01T00:00:00+00:00</time>
        <ele>756.0</ele>
      </trkpt>
      <trkpt lat="43.947478" lon="7.083624">
        <time>1970-01-01T00:00:00+00:00</time>
        <ele>756.0</ele>
      </trkpt>
      <trkpt lat="43.947762" lon="7.083249">
        <time>1970-01-01T00:00:00+00:00</time>
        <ele>764.0</ele>
      </trkpt>
      <trkpt lat="43.947808" lon="7.083019">
        <time>1970-01-01T00:00:00+00:00</time>
        <ele>759.0</ele>
      </trkpt>
      <trkpt lat="43.947972" lon="7.08282">
        <time>1970-01-01T00:00:00+00:00</time>
        <ele>765.0</ele>
      </trkpt>
      <trkpt lat="43.948005" lon="7.082555">
        <time>1970-01-01T00:00:00+00:00</time>
        <ele>760.0</ele>
      </trkpt>
      <trkpt lat="43.948061" lon="7.08235">
        <time>1970-01-01T00:00:00+00:00</time>
        <ele>760.0</ele>
      </trkpt>
      <trkpt lat="43.948127" lon="7.082193">
        <time>1970-01-01T00:00:00+00:00</time>
        <ele>760.0</ele>
      </trkpt>
      <trkpt lat="43.94833" lon="7.081969">
        <time>1970-01-01T00:00:00+00:00</time>
        <ele>761.0</ele>
      </trkpt>
      <trkpt lat="43.948384" lon="7.081779">
        <time>1970-01-01T00:00:00+00:00</time>
        <ele>757.0</ele>
      </trkpt>
      <trkpt lat="43.948411" lon="7.08158">
        <time>1970-01-01T00:00:00+00:00</time>
        <ele>755.0</ele>
      </trkpt>
      <trkpt lat="43.948528" lon="7.081299">
        <time>1970-01-01T00:00:00+00:00</time>
        <ele>761.0</ele>
      </trkpt>
      <trkpt lat="43.948634" lon="7.081091">
        <time>1970-01-01T00:00:00+00:00</time>
        <ele>765.0</ele>
      </trkpt>
      <trkpt lat="43.948634" lon="7.080997">
        <time>1970-01-01T00:00:00+00:00</time>
        <ele>762.0</ele>
      </trkpt>
      <trkpt lat="43.948506" lon="7.08068">
        <time>1970-01-01T00:00:00+00:00</time>
        <ele>762.0</ele>
      </trkpt>
      <trkpt lat="43.948471" lon="7.080506">
        <time>1970-01-01T00:00:00+00:00</time>
        <ele>766.0</ele>
      </trkpt>
      <trkpt lat="43.948471" lon="7.080349">
        <time>1970-01-01T00:00:00+00:00</time>
        <ele>771.0</ele>
      </trkpt>
      <trkpt lat="43.94837" lon="7.080082">
        <time>1970-01-01T00:00:00+00:00</time>
        <ele>768.0</ele>
      </trkpt>
      <trkpt lat="43.948365" lon="7.079978">
        <time>1970-01-01T00:00:00+00:00</time>
        <ele>770.0</ele>
      </trkpt>
      <trkpt lat="43.948398" lon="7.079777">
        <time>1970-01-01T00:00:00+00:00</time>
        <ele>776.0</ele>
      </trkpt>
      <trkpt lat="43.948354" lon="7.079634">
        <time>1970-01-01T00:00:00+00:00</time>
        <ele>775.0</ele>
      </trkpt>
      <trkpt lat="43.948214" lon="7.079428">
        <time>1970-01-01T00:00:00+00:00</time>
        <ele>773.0</ele>
      </trkpt>
      <trkpt lat="43.948131" lon="7.079177">
        <time>1970-01-01T00:00:00+00:00</time>
        <ele>779.0</ele>
      </trkpt>
      <trkpt lat="43.948127" lon="7.079126">
        <time>1970-01-01T00:00:00+00:00</time>
        <ele>781.0</ele>
      </trkpt>
      <trkpt lat="43.94804" lon="7.078904">
        <time>1970-01-01T00:00:00+00:00</time>
        <ele>784.0</ele>
      </trkpt>
      <trkpt lat="43.948052" lon="7.078791">
        <time>1970-01-01T00:00:00+00:00</time>
        <ele>787.0</ele>
      </trkpt>
      <trkpt lat="43.948227" lon="7.078425">
        <time>1970-01-01T00:00:00+00:00</time>
        <ele>799.0</ele>
      </trkpt>
      <trkpt lat="43.948368" lon="7.078245">
        <time>1970-01-01T00:00:00+00:00</time>
        <ele>804.0</ele>
      </trkpt>
      <trkpt lat="43.948582" lon="7.078122">
        <time>1970-01-01T00:00:00+00:00</time>
        <ele>812.0</ele>
      </trkpt>
      <trkpt lat="43.948994" lon="7.078081">
        <time>1970-01-01T00:00:00+00:00</time>
        <ele>827.0</ele>
      </trkpt>
      <trkpt lat="43.949031" lon="7.078006">
        <time>1970-01-01T00:00:00+00:00</time>
        <ele>825.0</ele>
      </trkpt>
      <trkpt lat="43.949061" lon="7.077815">
        <time>1970-01-01T00:00:00+00:00</time>
        <ele>822.0</ele>
      </trkpt>
      <trkpt lat="43.949302" lon="7.078084">
        <time>1970-01-01T00:00:00+00:00</time>
        <ele>833.0</ele>
      </trkpt>
      <trkpt lat="43.949329" lon="7.078159">
        <time>1970-01-01T00:00:00+00:00</time>
        <ele>836.0</ele>
      </trkpt>
      <trkpt lat="43.949301" lon="7.078243">
        <time>1970-01-01T00:00:00+00:00</time>
        <ele>839.0</ele>
      </trkpt>
      <trkpt lat="43.94916" lon="7.078303">
        <time>1970-01-01T00:00:00+00:00</time>
        <ele>839.0</ele>
      </trkpt>
      <trkpt lat="43.949063" lon="7.078321">
        <time>1970-01-01T00:00:00+00:00</time>
        <ele>837.0</ele>
      </trkpt>
      <trkpt lat="43.949056" lon="7.078362">
        <time>1970-01-01T00:00:00+00:00</time>
        <ele>839.0</ele>
      </trkpt>
      <trkpt lat="43.949128" lon="7.078339">
        <time>1970-01-01T00:00:00+00:00</time>
        <ele>840.0</ele>
      </trkpt>
      <trkpt lat="43.94934" lon="7.078351">
        <time>1970-01-01T00:00:00+00:00</time>
        <ele>844.0</ele>
      </trkpt>
      <trkpt lat="43.949463" lon="7.078336">
        <time>1970-01-01T00:00:00+00:00</time>
        <ele>846.0</ele>
      </trkpt>
      <trkpt lat="43.949517" lon="7.078267">
        <time>1970-01-01T00:00:00+00:00</time>
        <ele>845.0</ele>
      </trkpt>
      <trkpt lat="43.949526" lon="7.078142">
        <time>1970-01-01T00:00:00+00:00</time>
        <ele>841.0</ele>
      </trkpt>
      <trkpt lat="43.949571" lon="7.078042">
        <time>1970-01-01T00:00:00+00:00</time>
        <ele>840.0</ele>
      </trkpt>
      <trkpt lat="43.94948" lon="7.077893">
        <time>1970-01-01T00:00:00+00:00</time>
        <ele>838.0</ele>
      </trkpt>
      <trkpt lat="43.949444" lon="7.077749">
        <time>1970-01-01T00:00:00+00:00</time>
        <ele>839.0</ele>
      </trkpt>
      <trkpt lat="43.949446" lon="7.077479">
        <time>1970-01-01T00:00:00+00:00</time>
        <ele>844.0</ele>
      </trkpt>
      <trkpt lat="43.949579" lon="7.076812">
        <time>1970-01-01T00:00:00+00:00</time>
        <ele>853.0</ele>
      </trkpt>
      <trkpt lat="43.9498" lon="7.07626">
        <time>1970-01-01T00:00:00+00:00</time>
        <ele>863.0</ele>
      </trkpt>
      <trkpt lat="43.950259" lon="7.075586">
        <time>1970-01-01T00:00:00+00:00</time>
        <ele>877.0</ele>
      </trkpt>
      <trkpt lat="43.950647" lon="7.075358">
        <time>1970-01-01T00:00:00+00:00</time>
        <ele>887.0</ele>
      </trkpt>
      <trkpt lat="43.950709" lon="7.075233">
        <time>1970-01-01T00:00:00+00:00</time>
        <ele>886.0</ele>
      </trkpt>
      <trkpt lat="43.950819" lon="7.075129">
        <time>1970-01-01T00:00:00+00:00</time>
        <ele>888.0</ele>
      </trkpt>
      <trkpt lat="43.950979" lon="7.075093">
        <time>1970-01-01T00:00:00+00:00</time>
        <ele>893.0</ele>
      </trkpt>
      <trkpt lat="43.951041" lon="7.075148">
        <time>1970-01-01T00:00:00+00:00</time>
        <ele>897.0</ele>
      </trkpt>
      <trkpt lat="43.951238" lon="7.075216">
        <time>1970-01-01T00:00:00+00:00</time>
        <ele>904.0</ele>
      </trkpt>
      <trkpt lat="43.95173" lon="7.075141">
        <time>1970-01-01T00:00:00+00:00</time>
        <ele>916.0</ele>
      </trkpt>
      <trkpt lat="43.951847" lon="7.074832">
        <time>1970-01-01T00:00:00+00:00</time>
        <ele>906.0</ele>
      </trkpt>
      <trkpt lat="43.951949" lon="7.074778">
        <time>1970-01-01T00:00:00+00:00</time>
        <ele>911.0</ele>
      </trkpt>
      <trkpt lat="43.952222" lon="7.074721">
        <time>1970-01-01T00:00:00+00:00</time>
        <ele>923.0</ele>
      </trkpt>
      <trkpt lat="43.95229" lon="7.074663">
        <time>1970-01-01T00:00:00+00:00</time>
        <ele>922.0</ele>
      </trkpt>
      <trkpt lat="43.952403" lon="7.07466">
        <time>1970-01-01T00:00:00+00:00</time>
        <ele>927.0</ele>
      </trkpt>
      <trkpt lat="43.95248" lon="7.074256">
        <time>1970-01-01T00:00:00+00:00</time>
        <ele>915.0</ele>
      </trkpt>
      <trkpt lat="43.952548" lon="7.074085">
        <time>1970-01-01T00:00:00+00:00</time>
        <ele>916.0</ele>
      </trkpt>
      <trkpt lat="43.952608" lon="7.074021">
        <time>1970-01-01T00:00:00+00:00</time>
        <ele>919.0</ele>
      </trkpt>
      <trkpt lat="43.952988" lon="7.07394">
        <time>1970-01-01T00:00:00+00:00</time>
        <ele>934.0</ele>
      </trkpt>
      <trkpt lat="43.953041" lon="7.073869">
        <time>1970-01-01T00:00:00+00:00</time>
        <ele>934.0</ele>
      </trkpt>
      <trkpt lat="43.953073" lon="7.073857">
        <time>1970-01-01T00:00:00+00:00</time>
        <ele>934.0</ele>
      </trkpt>
      <trkpt lat="43.953086" lon="7.0739">
        <time>1970-01-01T00:00:00+00:00</time>
        <ele>936.0</ele>
      </trkpt>
      <trkpt lat="43.953033" lon="7.074024">
        <time>1970-01-01T00:00:00+00:00</time>
        <ele>938.0</ele>
      </trkpt>
      <trkpt lat="43.952651" lon="7.074438">
        <time>1970-01-01T00:00:00+00:00</time>
        <ele>932.0</ele>
      </trkpt>
      <trkpt lat="43.953197" lon="7.074268">
        <time>1970-01-01T00:00:00+00:00</time>
        <ele>951.0</ele>
      </trkpt>
      <trkpt lat="43.953607" lon="7.073807">
        <time>1970-01-01T00:00:00+00:00</time>
        <ele>954.0</ele>
      </trkpt>
      <trkpt lat="43.955126" lon="7.072415">
        <time>1970-01-01T00:00:00+00:00</time>
        <ele>984.0</ele>
      </trkpt>
      <trkpt lat="43.955783" lon="7.07204">
        <time>1970-01-01T00:00:00+00:00</time>
        <ele>992.0</ele>
      </trkpt>
      <trkpt lat="43.956392" lon="7.072017">
        <time>1970-01-01T00:00:00+00:00</time>
        <ele>1001.0</ele>
      </trkpt>
      <trkpt lat="43.957222" lon="7.072061">
        <time>1970-01-01T00:00:00+00:00</time>
        <ele>1016.0</ele>
      </trkpt>
      <trkpt lat="43.957499" lon="7.071959">
        <time>1970-01-01T00:00:00+00:00</time>
        <ele>1017.0</ele>
      </trkpt>
      <trkpt lat="43.957843" lon="7.071772">
        <time>1970-01-01T00:00:00+00:00</time>
        <ele>1018.0</ele>
      </trkpt>
      <trkpt lat="43.957899" lon="7.071786">
        <time>1970-01-01T00:00:00+00:00</time>
        <ele>1020.0</ele>
      </trkpt>
      <trkpt lat="43.958" lon="7.071895">
        <time>1970-01-01T00:00:00+00:00</time>
        <ele>1027.0</ele>
      </trkpt>
      <trkpt lat="43.95806" lon="7.071867">
        <time>1970-01-01T00:00:00+00:00</time>
        <ele>1028.0</ele>
      </trkpt>
      <trkpt lat="43.95824" lon="7.071613">
        <time>1970-01-01T00:00:00+00:00</time>
        <ele>1025.0</ele>
      </trkpt>
      <trkpt lat="43.958456" lon="7.071505">
        <time>1970-01-01T00:00:00+00:00</time>
        <ele>1030.0</ele>
      </trkpt>
      <trkpt lat="43.958887" lon="7.071121">
        <time>1970-01-01T00:00:00+00:00</time>
        <ele>1038.0</ele>
      </trkpt>
      <trkpt lat="43.959082" lon="7.071035">
        <time>1970-01-01T00:00:00+00:00</time>
        <ele>1040.0</ele>
      </trkpt>
      <trkpt lat="43.959208" lon="7.071075">
        <time>1970-01-01T00:00:00+00:00</time>
        <ele>1043.0</ele>
      </trkpt>
      <trkpt lat="43.959582" lon="7.071361">
        <time>1970-01-01T00:00:00+00:00</time>
        <ele>1054.0</ele>
      </trkpt>
      <trkpt lat="43.959875" lon="7.071316">
        <time>1970-01-01T00:00:00+00:00</time>
        <ele>1049.0</ele>
      </trkpt>
      <trkpt lat="43.960106" lon="7.071327">
        <time>1970-01-01T00:00:00+00:00</time>
        <ele>1045.0</ele>
      </trkpt>
      <trkpt lat="43.960657" lon="7.072183">
        <time>1970-01-01T00:00:00+00:00</time>
        <ele>1061.0</ele>
      </trkpt>
      <trkpt lat="43.961181" lon="7.072812">
        <time>1970-01-01T00:00:00+00:00</time>
        <ele>1073.0</ele>
      </trkpt>
      <trkpt lat="43.961679" lon="7.072594">
        <time>1970-01-01T00:00:00+00:00</time>
        <ele>1064.0</ele>
      </trkpt>
      <trkpt lat="43.961976" lon="7.072777">
        <time>1970-01-01T00:00:00+00:00</time>
        <ele>1078.0</ele>
      </trkpt>
      <trkpt lat="43.962576" lon="7.072598">
        <time>1970-01-01T00:00:00+00:00</time>
        <ele>1080.0</ele>
      </trkpt>
      <trkpt lat="43.963023" lon="7.072687">
        <time>1970-01-01T00:00:00+00:00</time>
        <ele>1096.0</ele>
      </trkpt>
      <trkpt lat="43.963363" lon="7.072608">
        <time>1970-01-01T00:00:00+00:00</time>
        <ele>1102.0</ele>
      </trkpt>
      <trkpt lat="43.963443" lon="7.072589">
        <time>1970-01-01T00:00:00+00:00</time>
        <ele>1104.0</ele>
      </trkpt>
      <trkpt lat="43.963846" lon="7.072186">
        <time>1970-01-01T00:00:00+00:00</time>
        <ele>1102.0</ele>
      </trkpt>
      <trkpt lat="43.964329" lon="7.072285">
        <time>1970-01-01T00:00:00+00:00</time>
        <ele>1118.0</ele>
      </trkpt>
      <trkpt lat="43.96483" lon="7.072159">
        <time>1970-01-01T00:00:00+00:00</time>
        <ele>1119.0</ele>
      </trkpt>
      <trkpt lat="43.965277" lon="7.071954">
        <time>1970-01-01T00:00:00+00:00</time>
        <ele>1117.0</ele>
      </trkpt>
      <trkpt lat="43.965743" lon="7.071605">
        <time>1970-01-01T00:00:00+00:00</time>
        <ele>1114.0</ele>
      </trkpt>
      <trkpt lat="43.966387" lon="7.071632">
        <time>1970-01-01T00:00:00+00:00</time>
        <ele>1116.0</ele>
      </trkpt>
      <trkpt lat="43.967206" lon="7.071882">
        <time>1970-01-01T00:00:00+00:00</time>
        <ele>1117.0</ele>
      </trkpt>
      <trkpt lat="43.96764" lon="7.071986">
        <time>1970-01-01T00:00:00+00:00</time>
        <ele>1113.0</ele>
      </trkpt>
      <trkpt lat="43.967898" lon="7.072133">
        <time>1970-01-01T00:00:00+00:00</time>
        <ele>1114.0</ele>
      </trkpt>
      <trkpt lat="43.96852" lon="7.072279">
        <time>1970-01-01T00:00:00+00:00</time>
        <ele>1112.0</ele>
      </trkpt>
      <trkpt lat="43.969115" lon="7.072343">
        <time>1970-01-01T00:00:00+00:00</time>
        <ele>1108.0</ele>
      </trkpt>
      <trkpt lat="43.969449" lon="7.072424">
        <time>1970-01-01T00:00:00+00:00</time>
        <ele>1107.0</ele>
      </trkpt>
      <trkpt lat="43.970575" lon="7.072872">
        <time>1970-01-01T00:00:00+00:00</time>
        <ele>1102.0</ele>
      </trkpt>
      <trkpt lat="43.970921" lon="7.072854">
        <time>1970-01-01T00:00:00+00:00</time>
        <ele>1097.0</ele>
      </trkpt>
      <trkpt lat="43.971102" lon="7.072874">
        <time>1970-01-01T00:00:00+00:00</time>
        <ele>1096.0</ele>
      </trkpt>
      <trkpt lat="43.971359" lon="7.072966">
        <time>1970-01-01T00:00:00+00:00</time>
        <ele>1098.0</ele>
      </trkpt>
      <trkpt lat="43.971815" lon="7.072953">
        <time>1970-01-01T00:00:00+00:00</time>
        <ele>1100.0</ele>
      </trkpt>
      <trkpt lat="43.971995" lon="7.072991">
        <time>1970-01-01T00:00:00+00:00</time>
        <ele>1103.0</ele>
      </trkpt>
      <trkpt lat="43.972055" lon="7.073024">
        <time>1970-01-01T00:00:00+00:00</time>
        <ele>1105.0</ele>
      </trkpt>
      <trkpt lat="43.971843" lon="7.073102">
        <time>1970-01-01T00:00:00+00:00</time>
        <ele>1104.0</ele>
      </trkpt>
      <trkpt lat="43.971581" lon="7.07312">
        <time>1970-01-01T00:00:00+00:00</time>
        <ele>1101.0</ele>
      </trkpt>
      <trkpt lat="43.970929" lon="7.07304">
        <time>1970-01-01T00:00:00+00:00</time>
        <ele>1098.0</ele>
      </trkpt>
      <trkpt lat="43.97056" lon="7.073211">
        <time>1970-01-01T00:00:00+00:00</time>
        <ele>1102.0</ele>
      </trkpt>
      <trkpt lat="43.970056" lon="7.073404">
        <time>1970-01-01T00:00:00+00:00</time>
        <ele>1112.0</ele>
      </trkpt>
      <trkpt lat="43.969348" lon="7.073643">
        <time>1970-01-01T00:00:00+00:00</time>
        <ele>1128.0</ele>
      </trkpt>
      <trkpt lat="43.969163" lon="7.073735">
        <time>1970-01-01T00:00:00+00:00</time>
        <ele>1131.0</ele>
      </trkpt>
      <trkpt lat="43.968928" lon="7.073722">
        <time>1970-01-01T00:00:00+00:00</time>
        <ele>1135.0</ele>
      </trkpt>
      <trkpt lat="43.968479" lon="7.073791">
        <time>1970-01-01T00:00:00+00:00</time>
        <ele>1143.0</ele>
      </trkpt>
      <trkpt lat="43.967881" lon="7.074008">
        <time>1970-01-01T00:00:00+00:00</time>
        <ele>1153.0</ele>
      </trkpt>
      <trkpt lat="43.967679" lon="7.074018">
        <time>1970-01-01T00:00:00+00:00</time>
        <ele>1157.0</ele>
      </trkpt>
      <trkpt lat="43.967536" lon="7.074079">
        <time>1970-01-01T00:00:00+00:00</time>
        <ele>1158.0</ele>
      </trkpt>
      <trkpt lat="43.967115" lon="7.074188">
        <time>1970-01-01T00:00:00+00:00</time>
        <ele>1166.0</ele>
      </trkpt>
      <trkpt lat="43.967022" lon="7.074196">
        <time>1970-01-01T00:00:00+00:00</time>
        <ele>1168.0</ele>
      </trkpt>
      <trkpt lat="43.966637" lon="7.074407">
        <time>1970-01-01T00:00:00+00:00</time>
        <ele>1174.0</ele>
      </trkpt>
      <trkpt lat="43.966339" lon="7.074516">
        <time>1970-01-01T00:00:00+00:00</time>
        <ele>1183.0</ele>
      </trkpt>
      <trkpt lat="43.966269" lon="7.074564">
        <time>1970-01-01T00:00:00+00:00</time>
        <ele>1184.0</ele>
      </trkpt>
      <trkpt lat="43.965601" lon="7.074541">
        <time>1970-01-01T00:00:00+00:00</time>
        <ele>1200.0</ele>
      </trkpt>
      <trkpt lat="43.965436" lon="7.074552">
        <time>1970-01-01T00:00:00+00:00</time>
        <ele>1203.0</ele>
      </trkpt>
      <trkpt lat="43.964993" lon="7.074509">
        <time>1970-01-01T00:00:00+00:00</time>
        <ele>1211.0</ele>
      </trkpt>
      <trkpt lat="43.9648" lon="7.07457">
        <time>1970-01-01T00:00:00+00:00</time>
        <ele>1215.0</ele>
      </trkpt>
      <trkpt lat="43.964671" lon="7.074572">
        <time>1970-01-01T00:00:00+00:00</time>
        <ele>1218.0</ele>
      </trkpt>
      <trkpt lat="43.964518" lon="7.074829">
        <time>1970-01-01T00:00:00+00:00</time>
        <ele>1223.0</ele>
      </trkpt>
      <trkpt lat="43.964394" lon="7.074949">
        <time>1970-01-01T00:00:00+00:00</time>
        <ele>1223.0</ele>
      </trkpt>
      <trkpt lat="43.963285" lon="7.075671">
        <time>1970-01-01T00:00:00+00:00</time>
        <ele>1218.0</ele>
      </trkpt>
      <trkpt lat="43.963153" lon="7.07572">
        <time>1970-01-01T00:00:00+00:00</time>
        <ele>1217.0</ele>
      </trkpt>
      <trkpt lat="43.962924" lon="7.075851">
        <time>1970-01-01T00:00:00+00:00</time>
        <ele>1216.0</ele>
      </trkpt>
      <trkpt lat="43.962924" lon="7.075851">
        <time>1970-01-01T00:00:00+00:00</time>
        <ele>1216.0</ele>
      </trkpt>
      <trkpt lat="43.963153" lon="7.07572">
        <time>1970-01-01T00:00:00+00:00</time>
        <ele>1217.0</ele>
      </trkpt>
      <trkpt lat="43.963285" lon="7.075671">
        <time>1970-01-01T00:00:00+00:00</time>
        <ele>1218.0</ele>
      </trkpt>
      <trkpt lat="43.964394" lon="7.074949">
        <time>1970-01-01T00:00:00+00:00</time>
        <ele>1223.0</ele>
      </trkpt>
      <trkpt lat="43.964518" lon="7.074829">
        <time>1970-01-01T00:00:00+00:00</time>
        <ele>1223.0</ele>
      </trkpt>
      <trkpt lat="43.964671" lon="7.074572">
        <time>1970-01-01T00:00:00+00:00</time>
        <ele>1218.0</ele>
      </trkpt>
      <trkpt lat="43.9648" lon="7.07457">
        <time>1970-01-01T00:00:00+00:00</time>
        <ele>1215.0</ele>
      </trkpt>
      <trkpt lat="43.964993" lon="7.074509">
        <time>1970-01-01T00:00:00+00:00</time>
        <ele>1211.0</ele>
      </trkpt>
      <trkpt lat="43.965436" lon="7.074552">
        <time>1970-01-01T00:00:00+00:00</time>
        <ele>1203.0</ele>
      </trkpt>
      <trkpt lat="43.965601" lon="7.074541">
        <time>1970-01-01T00:00:00+00:00</time>
        <ele>1200.0</ele>
      </trkpt>
      <trkpt lat="43.966269" lon="7.074564">
        <time>1970-01-01T00:00:00+00:00</time>
        <ele>1184.0</ele>
      </trkpt>
      <trkpt lat="43.966339" lon="7.074516">
        <time>1970-01-01T00:00:00+00:00</time>
        <ele>1183.0</ele>
      </trkpt>
      <trkpt lat="43.966637" lon="7.074407">
        <time>1970-01-01T00:00:00+00:00</time>
        <ele>1174.0</ele>
      </trkpt>
      <trkpt lat="43.967022" lon="7.074196">
        <time>1970-01-01T00:00:00+00:00</time>
        <ele>1168.0</ele>
      </trkpt>
      <trkpt lat="43.967115" lon="7.074188">
        <time>1970-01-01T00:00:00+00:00</time>
        <ele>1166.0</ele>
      </trkpt>
      <trkpt lat="43.967536" lon="7.074079">
        <time>1970-01-01T00:00:00+00:00</time>
        <ele>1158.0</ele>
      </trkpt>
      <trkpt lat="43.967679" lon="7.074018">
        <time>1970-01-01T00:00:00+00:00</time>
        <ele>1157.0</ele>
      </trkpt>
      <trkpt lat="43.967881" lon="7.074008">
        <time>1970-01-01T00:00:00+00:00</time>
        <ele>1153.0</ele>
      </trkpt>
      <trkpt lat="43.968479" lon="7.073791">
        <time>1970-01-01T00:00:00+00:00</time>
        <ele>1143.0</ele>
      </trkpt>
      <trkpt lat="43.968928" lon="7.073722">
        <time>1970-01-01T00:00:00+00:00</time>
        <ele>1135.0</ele>
      </trkpt>
      <trkpt lat="43.969163" lon="7.073735">
        <time>1970-01-01T00:00:00+00:00</time>
        <ele>1131.0</ele>
      </trkpt>
      <trkpt lat="43.969348" lon="7.073643">
        <time>1970-01-01T00:00:00+00:00</time>
        <ele>1128.0</ele>
      </trkpt>
      <trkpt lat="43.970056" lon="7.073404">
        <time>1970-01-01T00:00:00+00:00</time>
        <ele>1112.0</ele>
      </trkpt>
      <trkpt lat="43.97056" lon="7.073211">
        <time>1970-01-01T00:00:00+00:00</time>
        <ele>1102.0</ele>
      </trkpt>
      <trkpt lat="43.970929" lon="7.07304">
        <time>1970-01-01T00:00:00+00:00</time>
        <ele>1098.0</ele>
      </trkpt>
      <trkpt lat="43.971581" lon="7.07312">
        <time>1970-01-01T00:00:00+00:00</time>
        <ele>1101.0</ele>
      </trkpt>
      <trkpt lat="43.971843" lon="7.073102">
        <time>1970-01-01T00:00:00+00:00</time>
        <ele>1104.0</ele>
      </trkpt>
      <trkpt lat="43.972055" lon="7.073024">
        <time>1970-01-01T00:00:00+00:00</time>
        <ele>1105.0</ele>
      </trkpt>
      <trkpt lat="43.971995" lon="7.072991">
        <time>1970-01-01T00:00:00+00:00</time>
        <ele>1103.0</ele>
      </trkpt>
      <trkpt lat="43.971815" lon="7.072953">
        <time>1970-01-01T00:00:00+00:00</time>
        <ele>1100.0</ele>
      </trkpt>
      <trkpt lat="43.971359" lon="7.072966">
        <time>1970-01-01T00:00:00+00:00</time>
        <ele>1098.0</ele>
      </trkpt>
      <trkpt lat="43.971102" lon="7.072874">
        <time>1970-01-01T00:00:00+00:00</time>
        <ele>1096.0</ele>
      </trkpt>
      <trkpt lat="43.970921" lon="7.072854">
        <time>1970-01-01T00:00:00+00:00</time>
        <ele>1097.0</ele>
      </trkpt>
      <trkpt lat="43.970575" lon="7.072872">
        <time>1970-01-01T00:00:00+00:00</time>
        <ele>1102.0</ele>
      </trkpt>
      <trkpt lat="43.969449" lon="7.072424">
        <time>1970-01-01T00:00:00+00:00</time>
        <ele>1107.0</ele>
      </trkpt>
      <trkpt lat="43.969115" lon="7.072343">
        <time>1970-01-01T00:00:00+00:00</time>
        <ele>1108.0</ele>
      </trkpt>
      <trkpt lat="43.96852" lon="7.072279">
        <time>1970-01-01T00:00:00+00:00</time>
        <ele>1112.0</ele>
      </trkpt>
      <trkpt lat="43.967898" lon="7.072133">
        <time>1970-01-01T00:00:00+00:00</time>
        <ele>1114.0</ele>
      </trkpt>
      <trkpt lat="43.96764" lon="7.071986">
        <time>1970-01-01T00:00:00+00:00</time>
        <ele>1113.0</ele>
      </trkpt>
      <trkpt lat="43.967206" lon="7.071882">
        <time>1970-01-01T00:00:00+00:00</time>
        <ele>1117.0</ele>
      </trkpt>
      <trkpt lat="43.966387" lon="7.071632">
        <time>1970-01-01T00:00:00+00:00</time>
        <ele>1116.0</ele>
      </trkpt>
      <trkpt lat="43.965743" lon="7.071605">
        <time>1970-01-01T00:00:00+00:00</time>
        <ele>1114.0</ele>
      </trkpt>
      <trkpt lat="43.965277" lon="7.071954">
        <time>1970-01-01T00:00:00+00:00</time>
        <ele>1117.0</ele>
      </trkpt>
      <trkpt lat="43.96483" lon="7.072159">
        <time>1970-01-01T00:00:00+00:00</time>
        <ele>1119.0</ele>
      </trkpt>
      <trkpt lat="43.964329" lon="7.072285">
        <time>1970-01-01T00:00:00+00:00</time>
        <ele>1118.0</ele>
      </trkpt>
      <trkpt lat="43.963846" lon="7.072186">
        <time>1970-01-01T00:00:00+00:00</time>
        <ele>1102.0</ele>
      </trkpt>
      <trkpt lat="43.963443" lon="7.072589">
        <time>1970-01-01T00:00:00+00:00</time>
        <ele>1104.0</ele>
      </trkpt>
      <trkpt lat="43.963363" lon="7.072608">
        <time>1970-01-01T00:00:00+00:00</time>
        <ele>1102.0</ele>
      </trkpt>
      <trkpt lat="43.963023" lon="7.072687">
        <time>1970-01-01T00:00:00+00:00</time>
        <ele>1096.0</ele>
      </trkpt>
      <trkpt lat="43.962576" lon="7.072598">
        <time>1970-01-01T00:00:00+00:00</time>
        <ele>1080.0</ele>
      </trkpt>
      <trkpt lat="43.961976" lon="7.072777">
        <time>1970-01-01T00:00:00+00:00</time>
        <ele>1078.0</ele>
      </trkpt>
      <trkpt lat="43.961679" lon="7.072594">
        <time>1970-01-01T00:00:00+00:00</time>
        <ele>1064.0</ele>
      </trkpt>
      <trkpt lat="43.961181" lon="7.072812">
        <time>1970-01-01T00:00:00+00:00</time>
        <ele>1073.0</ele>
      </trkpt>
      <trkpt lat="43.960657" lon="7.072183">
        <time>1970-01-01T00:00:00+00:00</time>
        <ele>1061.0</ele>
      </trkpt>
      <trkpt lat="43.960106" lon="7.071327">
        <time>1970-01-01T00:00:00+00:00</time>
        <ele>1045.0</ele>
      </trkpt>
      <trkpt lat="43.959875" lon="7.071316">
        <time>1970-01-01T00:00:00+00:00</time>
        <ele>1049.0</ele>
      </trkpt>
      <trkpt lat="43.959582" lon="7.071361">
        <time>1970-01-01T00:00:00+00:00</time>
        <ele>1054.0</ele>
      </trkpt>
      <trkpt lat="43.959208" lon="7.071075">
        <time>1970-01-01T00:00:00+00:00</time>
        <ele>1043.0</ele>
      </trkpt>
      <trkpt lat="43.959082" lon="7.071035">
        <time>1970-01-01T00:00:00+00:00</time>
        <ele>1040.0</ele>
      </trkpt>
      <trkpt lat="43.958887" lon="7.071121">
        <time>1970-01-01T00:00:00+00:00</time>
        <ele>1038.0</ele>
      </trkpt>
      <trkpt lat="43.958456" lon="7.071505">
        <time>1970-01-01T00:00:00+00:00</time>
        <ele>1030.0</ele>
      </trkpt>
      <trkpt lat="43.95824" lon="7.071613">
        <time>1970-01-01T00:00:00+00:00</time>
        <ele>1025.0</ele>
      </trkpt>
      <trkpt lat="43.95806" lon="7.071867">
        <time>1970-01-01T00:00:00+00:00</time>
        <ele>1028.0</ele>
      </trkpt>
      <trkpt lat="43.958" lon="7.071895">
        <time>1970-01-01T00:00:00+00:00</time>
        <ele>1027.0</ele>
      </trkpt>
      <trkpt lat="43.957899" lon="7.071786">
        <time>1970-01-01T00:00:00+00:00</time>
        <ele>1020.0</ele>
      </trkpt>
      <trkpt lat="43.957843" lon="7.071772">
        <time>1970-01-01T00:00:00+00:00</time>
        <ele>1018.0</ele>
      </trkpt>
      <trkpt lat="43.957499" lon="7.071959">
        <time>1970-01-01T00:00:00+00:00</time>
        <ele>1017.0</ele>
      </trkpt>
      <trkpt lat="43.957222" lon="7.072061">
        <time>1970-01-01T00:00:00+00:00</time>
        <ele>1016.0</ele>
      </trkpt>
      <trkpt lat="43.956392" lon="7.072017">
        <time>1970-01-01T00:00:00+00:00</time>
        <ele>1001.0</ele>
      </trkpt>
      <trkpt lat="43.955783" lon="7.07204">
        <time>1970-01-01T00:00:00+00:00</time>
        <ele>992.0</ele>
      </trkpt>
      <trkpt lat="43.955126" lon="7.072415">
        <time>1970-01-01T00:00:00+00:00</time>
        <ele>984.0</ele>
      </trkpt>
      <trkpt lat="43.953607" lon="7.073807">
        <time>1970-01-01T00:00:00+00:00</time>
        <ele>954.0</ele>
      </trkpt>
      <trkpt lat="43.953197" lon="7.074268">
        <time>1970-01-01T00:00:00+00:00</time>
        <ele>951.0</ele>
      </trkpt>
      <trkpt lat="43.952651" lon="7.074438">
        <time>1970-01-01T00:00:00+00:00</time>
        <ele>932.0</ele>
      </trkpt>
      <trkpt lat="43.953033" lon="7.074024">
        <time>1970-01-01T00:00:00+00:00</time>
        <ele>938.0</ele>
      </trkpt>
      <trkpt lat="43.953086" lon="7.0739">
        <time>1970-01-01T00:00:00+00:00</time>
        <ele>936.0</ele>
      </trkpt>
      <trkpt lat="43.953073" lon="7.073857">
        <time>1970-01-01T00:00:00+00:00</time>
        <ele>934.0</ele>
      </trkpt>
      <trkpt lat="43.953041" lon="7.073869">
        <time>1970-01-01T00:00:00+00:00</time>
        <ele>934.0</ele>
      </trkpt>
      <trkpt lat="43.952988" lon="7.07394">
        <time>1970-01-01T00:00:00+00:00</time>
        <ele>934.0</ele>
      </trkpt>
      <trkpt lat="43.952608" lon="7.074021">
        <time>1970-01-01T00:00:00+00:00</time>
        <ele>919.0</ele>
      </trkpt>
      <trkpt lat="43.952548" lon="7.074085">
        <time>1970-01-01T00:00:00+00:00</time>
        <ele>916.0</ele>
      </trkpt>
      <trkpt lat="43.95248" lon="7.074256">
        <time>1970-01-01T00:00:00+00:00</time>
        <ele>915.0</ele>
      </trkpt>
      <trkpt lat="43.952403" lon="7.07466">
        <time>1970-01-01T00:00:00+00:00</time>
        <ele>927.0</ele>
      </trkpt>
      <trkpt lat="43.95229" lon="7.074663">
        <time>1970-01-01T00:00:00+00:00</time>
        <ele>922.0</ele>
      </trkpt>
      <trkpt lat="43.952222" lon="7.074721">
        <time>1970-01-01T00:00:00+00:00</time>
        <ele>923.0</ele>
      </trkpt>
      <trkpt lat="43.951949" lon="7.074778">
        <time>1970-01-01T00:00:00+00:00</time>
        <ele>911.0</ele>
      </trkpt>
      <trkpt lat="43.951847" lon="7.074832">
        <time>1970-01-01T00:00:00+00:00</time>
        <ele>906.0</ele>
      </trkpt>
      <trkpt lat="43.95173" lon="7.075141">
        <time>1970-01-01T00:00:00+00:00</time>
        <ele>916.0</ele>
      </trkpt>
      <trkpt lat="43.951238" lon="7.075216">
        <time>1970-01-01T00:00:00+00:00</time>
        <ele>904.0</ele>
      </trkpt>
      <trkpt lat="43.951041" lon="7.075148">
        <time>1970-01-01T00:00:00+00:00</time>
        <ele>897.0</ele>
      </trkpt>
      <trkpt lat="43.950979" lon="7.075093">
        <time>1970-01-01T00:00:00+00:00</time>
        <ele>893.0</ele>
      </trkpt>
      <trkpt lat="43.950819" lon="7.075129">
        <time>1970-01-01T00:00:00+00:00</time>
        <ele>888.0</ele>
      </trkpt>
      <trkpt lat="43.950709" lon="7.075233">
        <time>1970-01-01T00:00:00+00:00</time>
        <ele>886.0</ele>
      </trkpt>
      <trkpt lat="43.950647" lon="7.075358">
        <time>1970-01-01T00:00:00+00:00</time>
        <ele>887.0</ele>
      </trkpt>
      <trkpt lat="43.950259" lon="7.075586">
        <time>1970-01-01T00:00:00+00:00</time>
        <ele>877.0</ele>
      </trkpt>
      <trkpt lat="43.9498" lon="7.07626">
        <time>1970-01-01T00:00:00+00:00</time>
        <ele>863.0</ele>
      </trkpt>
      <trkpt lat="43.949579" lon="7.076812">
        <time>1970-01-01T00:00:00+00:00</time>
        <ele>853.0</ele>
      </trkpt>
      <trkpt lat="43.949446" lon="7.077479">
        <time>1970-01-01T00:00:00+00:00</time>
        <ele>844.0</ele>
      </trkpt>
      <trkpt lat="43.949444" lon="7.077749">
        <time>1970-01-01T00:00:00+00:00</time>
        <ele>839.0</ele>
      </trkpt>
      <trkpt lat="43.94948" lon="7.077893">
        <time>1970-01-01T00:00:00+00:00</time>
        <ele>838.0</ele>
      </trkpt>
      <trkpt lat="43.949571" lon="7.078042">
        <time>1970-01-01T00:00:00+00:00</time>
        <ele>840.0</ele>
      </trkpt>
      <trkpt lat="43.949526" lon="7.078142">
        <time>1970-01-01T00:00:00+00:00</time>
        <ele>841.0</ele>
      </trkpt>
      <trkpt lat="43.949517" lon="7.078267">
        <time>1970-01-01T00:00:00+00:00</time>
        <ele>845.0</ele>
      </trkpt>
      <trkpt lat="43.949463" lon="7.078336">
        <time>1970-01-01T00:00:00+00:00</time>
        <ele>846.0</ele>
      </trkpt>
      <trkpt lat="43.94934" lon="7.078351">
        <time>1970-01-01T00:00:00+00:00</time>
        <ele>844.0</ele>
      </trkpt>
      <trkpt lat="43.949128" lon="7.078339">
        <time>1970-01-01T00:00:00+00:00</time>
        <ele>840.0</ele>
      </trkpt>
      <trkpt lat="43.949056" lon="7.078362">
        <time>1970-01-01T00:00:00+00:00</time>
        <ele>839.0</ele>
      </trkpt>
      <trkpt lat="43.949063" lon="7.078321">
        <time>1970-01-01T00:00:00+00:00</time>
        <ele>837.0</ele>
      </trkpt>
      <trkpt lat="43.94916" lon="7.078303">
        <time>1970-01-01T00:00:00+00:00</time>
        <ele>839.0</ele>
      </trkpt>
      <trkpt lat="43.949301" lon="7.078243">
        <time>1970-01-01T00:00:00+00:00</time>
        <ele>839.0</ele>
      </trkpt>
      <trkpt lat="43.949329" lon="7.078159">
        <time>1970-01-01T00:00:00+00:00</time>
        <ele>836.0</ele>
      </trkpt>
      <trkpt lat="43.949302" lon="7.078084">
        <time>1970-01-01T00:00:00+00:00</time>
        <ele>833.0</ele>
      </trkpt>
      <trkpt lat="43.949061" lon="7.077815">
        <time>1970-01-01T00:00:00+00:00</time>
        <ele>822.0</ele>
      </trkpt>
      <trkpt lat="43.949031" lon="7.078006">
        <time>1970-01-01T00:00:00+00:00</time>
        <ele>825.0</ele>
      </trkpt>
      <trkpt lat="43.948994" lon="7.078081">
        <time>1970-01-01T00:00:00+00:00</time>
        <ele>827.0</ele>
      </trkpt>
      <trkpt lat="43.948582" lon="7.078122">
        <time>1970-01-01T00:00:00+00:00</time>
        <ele>812.0</ele>
      </trkpt>
      <trkpt lat="43.948368" lon="7.078245">
        <time>1970-01-01T00:00:00+00:00</time>
        <ele>804.0</ele>
      </trkpt>
      <trkpt lat="43.948227" lon="7.078425">
        <time>1970-01-01T00:00:00+00:00</time>
        <ele>799.0</ele>
      </trkpt>
      <trkpt lat="43.948052" lon="7.078791">
        <time>1970-01-01T00:00:00+00:00</time>
        <ele>787.0</ele>
      </trkpt>
      <trkpt lat="43.94804" lon="7.078904">
        <time>1970-01-01T00:00:00+00:00</time>
        <ele>784.0</ele>
      </trkpt>
      <trkpt lat="43.948127" lon="7.079126">
        <time>1970-01-01T00:00:00+00:00</time>
        <ele>781.0</ele>
      </trkpt>
      <trkpt lat="43.948131" lon="7.079177">
        <time>1970-01-01T00:00:00+00:00</time>
        <ele>779.0</ele>
      </trkpt>
      <trkpt lat="43.948214" lon="7.079428">
        <time>1970-01-01T00:00:00+00:00</time>
        <ele>773.0</ele>
      </trkpt>
      <trkpt lat="43.948354" lon="7.079634">
        <time>1970-01-01T00:00:00+00:00</time>
        <ele>775.0</ele>
      </trkpt>
      <trkpt lat="43.948398" lon="7.079777">
        <time>1970-01-01T00:00:00+00:00</time>
        <ele>776.0</ele>
      </trkpt>
      <trkpt lat="43.948365" lon="7.079978">
        <time>1970-01-01T00:00:00+00:00</time>
        <ele>770.0</ele>
      </trkpt>
      <trkpt lat="43.94837" lon="7.080082">
        <time>1970-01-01T00:00:00+00:00</time>
        <ele>768.0</ele>
      </trkpt>
      <trkpt lat="43.948471" lon="7.080349">
        <time>1970-01-01T00:00:00+00:00</time>
        <ele>771.0</ele>
      </trkpt>
      <trkpt lat="43.948471" lon="7.080506">
        <time>1970-01-01T00:00:00+00:00</time>
        <ele>766.0</ele>
      </trkpt>
      <trkpt lat="43.948506" lon="7.08068">
        <time>1970-01-01T00:00:00+00:00</time>
        <ele>762.0</ele>
      </trkpt>
      <trkpt lat="43.948634" lon="7.080997">
        <time>1970-01-01T00:00:00+00:00</time>
        <ele>762.0</ele>
      </trkpt>
      <trkpt lat="43.948634" lon="7.081091">
        <time>1970-01-01T00:00:00+00:00</time>
        <ele>765.0</ele>
      </trkpt>
      <trkpt lat="43.948528" lon="7.081299">
        <time>1970-01-01T00:00:00+00:00</time>
        <ele>761.0</ele>
      </trkpt>
      <trkpt lat="43.948411" lon="7.08158">
        <time>1970-01-01T00:00:00+00:00</time>
        <ele>755.0</ele>
      </trkpt>
      <trkpt lat="43.948384" lon="7.081779">
        <time>1970-01-01T00:00:00+00:00</time>
        <ele>757.0</ele>
      </trkpt>
      <trkpt lat="43.94833" lon="7.081969">
        <time>1970-01-01T00:00:00+00:00</time>
        <ele>761.0</ele>
      </trkpt>
      <trkpt lat="43.948127" lon="7.082193">
        <time>1970-01-01T00:00:00+00:00</time>
        <ele>760.0</ele>
      </trkpt>
      <trkpt lat="43.948061" lon="7.08235">
        <time>1970-01-01T00:00:00+00:00</time>
        <ele>760.0</ele>
      </trkpt>
      <trkpt lat="43.948005" lon="7.082555">
        <time>1970-01-01T00:00:00+00:00</time>
        <ele>760.0</ele>
      </trkpt>
      <trkpt lat="43.947972" lon="7.08282">
        <time>1970-01-01T00:00:00+00:00</time>
        <ele>765.0</ele>
      </trkpt>
      <trkpt lat="43.947808" lon="7.083019">
        <time>1970-01-01T00:00:00+00:00</time>
        <ele>759.0</ele>
      </trkpt>
      <trkpt lat="43.947762" lon="7.083249">
        <time>1970-01-01T00:00:00+00:00</time>
        <ele>764.0</ele>
      </trkpt>
      <trkpt lat="43.947478" lon="7.083624">
        <time>1970-01-01T00:00:00+00:00</time>
        <ele>756.0</ele>
      </trkpt>
      <trkpt lat="43.947459" lon="7.083841">
        <time>1970-01-01T00:00:00+00:00</time>
        <ele>756.0</ele>
      </trkpt>
      <trkpt lat="43.947388" lon="7.084068">
        <time>1970-01-01T00:00:00+00:00</time>
        <ele>754.0</ele>
      </trkpt>
      <trkpt lat="43.947331" lon="7.084147">
        <time>1970-01-01T00:00:00+00:00</time>
        <ele>753.0</ele>
      </trkpt>
      <trkpt lat="43.947311" lon="7.084226">
        <time>1970-01-01T00:00:00+00:00</time>
        <ele>753.0</ele>
      </trkpt>
      <trkpt lat="43.947221" lon="7.084395">
        <time>1970-01-01T00:00:00+00:00</time>
        <ele>752.0</ele>
      </trkpt>
      <trkpt lat="43.947129" lon="7.084509">
        <time>1970-01-01T00:00:00+00:00</time>
        <ele>755.0</ele>
      </trkpt>
      <trkpt lat="43.947328" lon="7.084431">
        <time>1970-01-01T00:00:00+00:00</time>
        <ele>750.0</ele>
      </trkpt>
      <trkpt lat="43.947475" lon="7.084347">
        <time>1970-01-01T00:00:00+00:00</time>
        <ele>748.0</ele>
      </trkpt>
      <trkpt lat="43.947867" lon="7.084271">
        <time>1970-01-01T00:00:00+00:00</time>
        <ele>741.0</ele>
      </trkpt>
      <trkpt lat="43.948044" lon="7.084182">
        <time>1970-01-01T00:00:00+00:00</time>
        <ele>742.0</ele>
      </trkpt>
      <trkpt lat="43.948137" lon="7.08419">
        <time>1970-01-01T00:00:00+00:00</time>
        <ele>740.0</ele>
      </trkpt>
      <trkpt lat="43.948347" lon="7.08411">
        <time>1970-01-01T00:00:00+00:00</time>
        <ele>741.0</ele>
      </trkpt>
      <trkpt lat="43.948246" lon="7.084205">
        <time>1970-01-01T00:00:00+00:00</time>
        <ele>738.0</ele>
      </trkpt>
      <trkpt lat="43.948281" lon="7.084219">
        <time>1970-01-01T00:00:00+00:00</time>
        <ele>736.0</ele>
      </trkpt>
      <trkpt lat="43.948252" lon="7.084253">
        <time>1970-01-01T00:00:00+00:00</time>
        <ele>735.0</ele>
      </trkpt>
      <trkpt lat="43.948293" lon="7.084262">
        <time>1970-01-01T00:00:00+00:00</time>
        <ele>734.0</ele>
      </trkpt>
      <trkpt lat="43.948262" lon="7.084317">
        <time>1970-01-01T00:00:00+00:00</time>
        <ele>732.0</ele>
      </trkpt>
      <trkpt lat="43.948321" lon="7.084336">
        <time>1970-01-01T00:00:00+00:00</time>
        <ele>730.0</ele>
      </trkpt>
      <trkpt lat="43.948298" lon="7.084385">
        <time>1970-01-01T00:00:00+00:00</time>
        <ele>727.0</ele>
      </trkpt>
      <trkpt lat="43.94841" lon="7.084398">
        <time>1970-01-01T00:00:00+00:00</time>
        <ele>725.0</ele>
      </trkpt>
      <trkpt lat="43.948374" lon="7.084484">
        <time>1970-01-01T00:00:00+00:00</time>
        <ele>721.0</ele>
      </trkpt>
      <trkpt lat="43.948468" lon="7.084486">
        <time>1970-01-01T00:00:00+00:00</time>
        <ele>720.0</ele>
      </trkpt>
      <trkpt lat="43.948391" lon="7.084624">
        <time>1970-01-01T00:00:00+00:00</time>
        <ele>713.0</ele>
      </trkpt>
      <trkpt lat="43.948442" lon="7.084702">
        <time>1970-01-01T00:00:00+00:00</time>
        <ele>708.0</ele>
      </trkpt>
      <trkpt lat="43.948419" lon="7.084758">
        <time>1970-01-01T00:00:00+00:00</time>
        <ele>705.0</ele>
      </trkpt>
      <trkpt lat="43.948492" lon="7.08479">
        <time>1970-01-01T00:00:00+00:00</time>
        <ele>702.0</ele>
      </trkpt>
      <trkpt lat="43.948369" lon="7.084874">
        <time>1970-01-01T00:00:00+00:00</time>
        <ele>699.0</ele>
      </trkpt>
      <trkpt lat="43.948446" lon="7.085004">
        <time>1970-01-01T00:00:00+00:00</time>
        <ele>690.0</ele>
      </trkpt>
      <trkpt lat="43.948295" lon="7.08505">
        <time>1970-01-01T00:00:00+00:00</time>
        <ele>690.0</ele>
      </trkpt>
      <trkpt lat="43.948071" lon="7.085162">
        <time>1970-01-01T00:00:00+00:00</time>
        <ele>690.0</ele>
      </trkpt>
      <trkpt lat="43.947958" lon="7.085232">
        <time>1970-01-01T00:00:00+00:00</time>
        <ele>691.0</ele>
      </trkpt>
      <trkpt lat="43.947774" lon="7.085409">
        <time>1970-01-01T00:00:00+00:00</time>
        <ele>691.0</ele>
      </trkpt>
      <trkpt lat="43.947352" lon="7.086211">
        <time>1970-01-01T00:00:00+00:00</time>
        <ele>690.0</ele>
      </trkpt>
      <trkpt lat="43.947033" lon="7.086923">
        <time>1970-01-01T00:00:00+00:00</time>
        <ele>672.0</ele>
      </trkpt>
      <trkpt lat="43.946852" lon="7.086909">
        <time>1970-01-01T00:00:00+00:00</time>
        <ele>667.0</ele>
      </trkpt>
      <trkpt lat="43.94671" lon="7.086799">
        <time>1970-01-01T00:00:00+00:00</time>
        <ele>674.0</ele>
      </trkpt>
      <trkpt lat="43.946505" lon="7.086904">
        <time>1970-01-01T00:00:00+00:00</time>
        <ele>687.0</ele>
      </trkpt>
      <trkpt lat="43.946488" lon="7.087042">
        <time>1970-01-01T00:00:00+00:00</time>
        <ele>681.0</ele>
      </trkpt>
      <trkpt lat="43.946403" lon="7.087116">
        <time>1970-01-01T00:00:00+00:00</time>
        <ele>684.0</ele>
      </trkpt>
      <trkpt lat="43.946325" lon="7.087256">
        <time>1970-01-01T00:00:00+00:00</time>
        <ele>673.0</ele>
      </trkpt>
      <trkpt lat="43.946193" lon="7.087384">
        <time>1970-01-01T00:00:00+00:00</time>
        <ele>657.0</ele>
      </trkpt>
      <trkpt lat="43.945973" lon="7.087347">
        <time>1970-01-01T00:00:00+00:00</time>
        <ele>666.0</ele>
      </trkpt>
      <trkpt lat="43.945647" lon="7.087488">
        <time>1970-01-01T00:00:00+00:00</time>
        <ele>679.0</ele>
      </trkpt>
      <trkpt lat="43.945569" lon="7.087668">
        <time>1970-01-01T00:00:00+00:00</time>
        <ele>673.0</ele>
      </trkpt>
      <trkpt lat="43.945514" lon="7.088092">
        <time>1970-01-01T00:00:00+00:00</time>
        <ele>653.0</ele>
      </trkpt>
      <trkpt lat="43.945484" lon="7.088166">
        <time>1970-01-01T00:00:00+00:00</time>
        <ele>650.0</ele>
      </trkpt>
      <trkpt lat="43.945444" lon="7.088161">
        <time>1970-01-01T00:00:00+00:00</time>
        <ele>651.0</ele>
      </trkpt>
      <trkpt lat="43.945299" lon="7.08807">
        <time>1970-01-01T00:00:00+00:00</time>
        <ele>650.0</ele>
      </trkpt>
      <trkpt lat="43.945162" lon="7.088031">
        <time>1970-01-01T00:00:00+00:00</time>
        <ele>648.0</ele>
      </trkpt>
      <trkpt lat="43.944965" lon="7.088051">
        <time>1970-01-01T00:00:00+00:00</time>
        <ele>646.0</ele>
      </trkpt>
      <trkpt lat="43.944842" lon="7.087993">
        <time>1970-01-01T00:00:00+00:00</time>
        <ele>650.0</ele>
      </trkpt>
      <trkpt lat="43.944746" lon="7.088027">
        <time>1970-01-01T00:00:00+00:00</time>
        <ele>652.0</ele>
      </trkpt>
      <trkpt lat="43.944616" lon="7.088006">
        <time>1970-01-01T00:00:00+00:00</time>
        <ele>655.0</ele>
      </trkpt>
      <trkpt lat="43.944381" lon="7.088089">
        <time>1970-01-01T00:00:00+00:00</time>
        <ele>649.0</ele>
      </trkpt>
      <trkpt lat="43.944267" lon="7.088152">
        <time>1970-01-01T00:00:00+00:00</time>
        <ele>645.0</ele>
      </trkpt>
      <trkpt lat="43.943805" lon="7.088634">
        <time>1970-01-01T00:00:00+00:00</time>
        <ele>632.0</ele>
      </trkpt>
      <trkpt lat="43.943561" lon="7.089001">
        <time>1970-01-01T00:00:00+00:00</time>
        <ele>625.0</ele>
      </trkpt>
      <trkpt lat="43.943225" lon="7.089363">
        <time>1970-01-01T00:00:00+00:00</time>
        <ele>617.0</ele>
      </trkpt>
      <trkpt lat="43.942623" lon="7.089861">
        <time>1970-01-01T00:00:00+00:00</time>
        <ele>597.0</ele>
      </trkpt>
      <trkpt lat="43.942468" lon="7.090193">
        <time>1970-01-01T00:00:00+00:00</time>
        <ele>586.0</ele>
      </trkpt>
      <trkpt lat="43.942469" lon="7.090272">
        <time>1970-01-01T00:00:00+00:00</time>
        <ele>588.0</ele>
      </trkpt>
      <trkpt lat="43.942418" lon="7.090428">
        <time>1970-01-01T00:00:00+00:00</time>
        <ele>586.0</ele>
      </trkpt>
      <trkpt lat="43.942118" lon="7.091111">
        <time>1970-01-01T00:00:00+00:00</time>
        <ele>571.0</ele>
      </trkpt>
      <trkpt lat="43.942098" lon="7.091199">
        <time>1970-01-01T00:00:00+00:00</time>
        <ele>569.0</ele>
      </trkpt>
      <trkpt lat="43.942066" lon="7.091745">
        <time>1970-01-01T00:00:00+00:00</time>
        <ele>571.0</ele>
      </trkpt>
      <trkpt lat="43.942035" lon="7.091801">
        <time>1970-01-01T00:00:00+00:00</time>
        <ele>571.0</ele>
      </trkpt>
      <trkpt lat="43.941974" lon="7.091872">
        <time>1970-01-01T00:00:00+00:00</time>
        <ele>572.0</ele>
      </trkpt>
      <trkpt lat="43.941485" lon="7.092101">
        <time>1970-01-01T00:00:00+00:00</time>
        <ele>557.0</ele>
      </trkpt>
      <trkpt lat="43.941266" lon="7.092338">
        <time>1970-01-01T00:00:00+00:00</time>
        <ele>551.0</ele>
      </trkpt>
      <trkpt lat="43.940464" lon="7.092927">
        <time>1970-01-01T00:00:00+00:00</time>
        <ele>531.0</ele>
      </trkpt>
      <trkpt lat="43.940211" lon="7.093151">
        <time>1970-01-01T00:00:00+00:00</time>
        <ele>521.0</ele>
      </trkpt>
      <trkpt lat="43.940161" lon="7.093236">
        <time>1970-01-01T00:00:00+00:00</time>
        <ele>522.0</ele>
      </trkpt>
      <trkpt lat="43.939893" lon="7.093557">
        <time>1970-01-01T00:00:00+00:00</time>
        <ele>515.0</ele>
      </trkpt>
      <trkpt lat="43.939738" lon="7.093776">
        <time>1970-01-01T00:00:00+00:00</time>
        <ele>508.0</ele>
      </trkpt>
      <trkpt lat="43.939294" lon="7.094583">
        <time>1970-01-01T00:00:00+00:00</time>
        <ele>495.0</ele>
      </trkpt>
      <trkpt lat="43.939256" lon="7.094615">
        <time>1970-01-01T00:00:00+00:00</time>
        <ele>493.0</ele>
      </trkpt>
      <trkpt lat="43.939194" lon="7.09479">
        <time>1970-01-01T00:00:00+00:00</time>
        <ele>491.0</ele>
      </trkpt>
      <trkpt lat="43.939075" lon="7.095248">
        <time>1970-01-01T00:00:00+00:00</time>
        <ele>486.0</ele>
      </trkpt>
      <trkpt lat="43.938988" lon="7.095432">
        <time>1970-01-01T00:00:00+00:00</time>
        <ele>480.0</ele>
      </trkpt>
      <trkpt lat="43.938886" lon="7.096009">
        <time>1970-01-01T00:00:00+00:00</time>
        <ele>468.0</ele>
      </trkpt>
      <trkpt lat="43.938874" lon="7.09642">
        <time>1970-01-01T00:00:00+00:00</time>
        <ele>462.0</ele>
      </trkpt>
      <trkpt lat="43.9389" lon="7.096752">
        <time>1970-01-01T00:00:00+00:00</time>
        <ele>457.0</ele>
      </trkpt>
      <trkpt lat="43.938824" lon="7.096974">
        <time>1970-01-01T00:00:00+00:00</time>
        <ele>454.0</ele>
      </trkpt>
      <trkpt lat="43.938768" lon="7.097091">
        <time>1970-01-01T00:00:00+00:00</time>
        <ele>451.0</ele>
      </trkpt>
      <trkpt lat="43.938627" lon="7.097242">
        <time>1970-01-01T00:00:00+00:00</time>
        <ele>448.0</ele>
      </trkpt>
      <trkpt lat="43.93858" lon="7.097253">
        <time>1970-01-01T00:00:00+00:00</time>
        <ele>447.0</ele>
      </trkpt>
      <trkpt lat="43.93843" lon="7.097287">
        <time>1970-01-01T00:00:00+00:00</time>
        <ele>445.0</ele>
      </trkpt>
      <trkpt lat="43.938375" lon="7.097329">
        <time>1970-01-01T00:00:00+00:00</time>
        <ele>444.0</ele>
      </trkpt>
      <trkpt lat="43.938341" lon="7.097289">
        <time>1970-01-01T00:00:00+00:00</time>
        <ele>445.0</ele>
      </trkpt>
      <trkpt lat="43.938331" lon="7.097212">
        <time>1970-01-01T00:00:00+00:00</time>
        <ele>447.0</ele>
      </trkpt>
      <trkpt lat="43.938177" lon="7.097117">
        <time>1970-01-01T00:00:00+00:00</time>
        <ele>443.0</ele>
      </trkpt>
      <trkpt lat="43.938013" lon="7.097118">
        <time>1970-01-01T00:00:00+00:00</time>
        <ele>439.0</ele>
      </trkpt>
      <trkpt lat="43.93799" lon="7.097091">
        <time>1970-01-01T00:00:00+00:00</time>
        <ele>438.0</ele>
      </trkpt>
      <trkpt lat="43.937844" lon="7.096918">
        <time>1970-01-01T00:00:00+00:00</time>
        <ele>431.0</ele>
      </trkpt>
      <trkpt lat="43.937862" lon="7.096828">
        <time>1970-01-01T00:00:00+00:00</time>
        <ele>430.0</ele>
      </trkpt>
      <trkpt lat="43.937826" lon="7.096744">
        <time>1970-01-01T00:00:00+00:00</time>
        <ele>428.0</ele>
      </trkpt>
      <trkpt lat="43.937836" lon="7.096634">
        <time>1970-01-01T00:00:00+00:00</time>
        <ele>427.0</ele>
      </trkpt>
      <trkpt lat="43.937851" lon="7.096512">
        <time>1970-01-01T00:00:00+00:00</time>
        <ele>426.0</ele>
      </trkpt>
    </trkseg>
  </trk>
</gpx>
